Voltar ao catálogo

STARLINK-30774

AtivoComunicaçõesVLEO
NORAD 58625·PAYLOAD·🇺🇸 United States

Lançado Dec 23, 2023 de Cape Canaveral Space Force Station

Loading…

Próximas Passagens (próximas 24 horas)

TLE

AtualizadoSource: CelesTrak SupGP

Época: Sep 15, 2026, 02:29 UTC

1 58625C 23203H   26258.10395833 -.00009124  00000+0 -33041-3 0  2580
2 58625  43.0000  77.3405 0001493 271.7332 328.3617 15.27589658    10

Acompanhe STARLINK-30774 em tempo real com AllMySat

Download on the App Store